Rugby, ND

6:44 PM CDT on May 22, 2017 (GMT -0500)
Rugby Municipal

Weather History for KRUG - December, 2012

Change the Weather History Date:

Sunday, December 30, 2012

  Actual Average Record
Temperature  
Mean Temperature 8 °F -  
Max Temperature 21 °F 14 °F 39 °F (1980)
Min Temperature -7 °F -3 °F -37 °F (1990)
Degree Days  
Heating Degree Days 57    
Moisture  
Dew Point 9 °F    
Average Humidity 85    
Maximum Humidity 93    
Minimum Humidity 78    
Precipitation  
Precipitation 0.03 in - - ()
Sea Level Pressure  
Sea Level Pressure 29.95 in    
Wind  
Wind Speed 10 mph (WNW)    
Max Wind Speed 23 mph    
Max Gust Speed 29 mph    
Visibility 10 miles    
Events Snow    
Averages and records for this station are not official NWS values.
T = Trace of Precipitation, MM = Missing Value Source: NWS Daily Summary

Daily Weather History Graph

Daily Weather History Graph

Search for Another Location

Airport or City:

Trip Planner

Search our weather history database for the weather conditions in past years. The results will help you decide how hot, cold, wet, or windy it might be!

Date:

Astronomy

Dec. 30, 2012 Rise Set
Actual Time 8:31 AM CST 4:54 PM CST
Civil Twilight 7:54 AM CST 5:31 PM CST
Nautical Twilight 7:15 AM CST 6:10 PM CST
Astronomical Twilight 6:36 AM CST 6:49 PM CST
Moon 7:40 PM CST (12/30) 9:29 AM CST (12/30)
Length of Visible Light 9h 36m
Length of Day
8h 22m
Waning Gibbous, 95% of the Moon is Illuminated
Dec 30
Waning Gibbous
Jan 4
Last Quarter
Jan 11
New
Jan 18
First Quarter
Jan 26
Full

Hourly Weather History & Observations

Time (CST) Temp. Windchill Dew Point Humidity Pressure Visibility Wind Dir Wind Speed Gust Speed Precip Events Conditions
12:15 AM 5.0 °F -5.6 °F 1.4 °F 85% 29.92 in 10.0 mi SSW 5.8 mph - N/A   Clear
12:35 AM 6.8 °F -4.8 °F 3.2 °F 85% 29.91 in 10.0 mi SSW 6.9 mph - N/A   Clear
12:55 AM 6.8 °F -4.8 °F 5.0 °F 92% 29.91 in 10.0 mi SSW 6.9 mph - N/A   Clear
1:15 AM 6.8 °F - 3.2 °F 85% 29.91 in 10.0 mi Calm Calm - N/A   Partly Cloudy
1:35 AM 5.0 °F -2.1 °F 3.2 °F 92% 29.90 in 10.0 mi South 3.5 mph - N/A   Partly Cloudy
1:55 AM 5.0 °F -2.1 °F 1.4 °F 85% 29.90 in 10.0 mi SSE 3.5 mph - N/A   Mostly Cloudy
2:15 AM 6.8 °F -2.0 °F 5.0 °F 92% 29.91 in 10.0 mi SSW 4.6 mph - N/A   Scattered Clouds
2:35 AM 8.6 °F 2.0 °F 6.8 °F 92% 29.90 in 10.0 mi SW 3.5 mph - N/A   Clear
2:55 AM 10.4 °F -1.5 °F 6.8 °F 85% 29.91 in 10.0 mi SSW 8.1 mph - N/A   Clear
3:15 AM 14.0 °F 2.9 °F 10.4 °F 86% 29.90 in 10.0 mi SW 8.1 mph - N/A   Clear
3:35 AM 14.0 °F 3.9 °F 10.4 °F 86% 29.90 in 10.0 mi SW 6.9 mph - N/A   Clear
3:55 AM 14.0 °F 2.0 °F 10.4 °F 86% 29.90 in 10.0 mi SW 9.2 mph - N/A   Scattered Clouds
4:15 AM 15.8 °F 3.4 °F 14.0 °F 93% 29.90 in 10.0 mi SW 10.4 mph - N/A   Overcast
4:35 AM 15.8 °F 2.1 °F 14.0 °F 93% 29.89 in 10.0 mi SW 12.7 mph - N/A   Overcast
4:55 AM 15.8 °F 2.7 °F 14.0 °F 93% 29.89 in 10.0 mi SW 11.5 mph - N/A   Overcast
5:15 AM 14.0 °F 2.0 °F 10.4 °F 86% 29.88 in 10.0 mi WSW 9.2 mph - N/A   Overcast
5:35 AM 15.8 °F 3.4 °F 10.4 °F 79% 29.88 in 10.0 mi SW 10.4 mph - N/A   Mostly Cloudy
6:15 AM 12.2 °F -1.0 °F 8.6 °F 85% 29.88 in 10.0 mi WSW 10.4 mph - N/A   Mostly Cloudy
6:55 AM 10.4 °F -2.4 °F 8.6 °F 92% 29.89 in 10.0 mi WSW 9.2 mph - N/A   Overcast
7:15 AM 12.2 °F 0.7 °F 10.4 °F 92% 29.88 in 10.0 mi West 8.1 mph - N/A   Overcast
7:55 AM 14.0 °F 2.9 °F 10.4 °F 86% 29.87 in 10.0 mi West 8.1 mph - N/A   Overcast
8:15 AM 15.8 °F 4.2 °F 12.2 °F 86% 29.87 in 10.0 mi WNW 9.2 mph - N/A   Overcast
8:35 AM 15.8 °F 4.2 °F 14.0 °F 93% 29.87 in 10.0 mi West 9.2 mph - N/A   Mostly Cloudy
8:55 AM 15.8 °F 4.2 °F 14.0 °F 93% 29.88 in 10.0 mi West 9.2 mph - N/A   Mostly Cloudy
9:15 AM 17.6 °F 7.3 °F 14.0 °F 86% 29.88 in 10.0 mi West 8.1 mph - N/A Snow Light Snow
9:35 AM 15.8 °F 6.1 °F 14.0 °F 93% 29.89 in 8.0 mi West 6.9 mph - N/A Snow Light Snow
9:55 AM 17.6 °F 5.7 °F 15.8 °F 93% 29.89 in 10.0 mi WNW 10.4 mph - 0.01 in Snow Light Snow
10:15 AM 17.6 °F 6.4 °F 15.8 °F 93% 29.89 in 10.0 mi WNW 9.2 mph - N/A Snow Light Snow
10:35 AM 19.4 °F 7.9 °F 17.6 °F 93% 29.90 in 10.0 mi WNW 10.4 mph - N/A   Overcast
10:55 AM 19.4 °F 7.9 °F 17.6 °F 93% 29.90 in 10.0 mi WNW 10.4 mph - N/A   Mostly Cloudy
11:15 AM 19.4 °F 5.5 °F 17.6 °F 93% 29.89 in 10.0 mi WNW 15.0 mph - N/A   Partly Cloudy
11:35 AM 21.2 °F 6.8 °F 17.6 °F 86% 29.89 in 10.0 mi NW 17.3 mph - N/A   Partly Cloudy
11:55 AM 21.2 °F 6.8 °F 17.6 °F 86% 29.89 in 10.0 mi NW 17.3 mph - N/A   Partly Cloudy
12:15 PM 21.2 °F 7.8 °F 17.6 °F 86% 29.89 in 10.0 mi NW 15.0 mph - N/A   Clear
12:35 PM 19.4 °F 5.0 °F 17.6 °F 93% 29.89 in 10.0 mi NW 16.1 mph - N/A   Partly Cloudy
12:55 PM 21.2 °F 6.4 °F 17.6 °F 86% 29.89 in 10.0 mi NW 18.4 mph 24.2 mph N/A   Mostly Cloudy
1:15 PM 21.2 °F 6.0 °F 17.6 °F 86% 29.89 in 10.0 mi NW 19.6 mph - N/A   Mostly Cloudy
1:35 PM 19.4 °F 4.1 °F 17.6 °F 93% 29.88 in 10.0 mi NW 18.4 mph - N/A   Overcast
1:55 PM 19.4 °F 3.6 °F 17.6 °F 93% 29.88 in 10.0 mi NW 19.6 mph - N/A   Overcast
2:15 PM 19.4 °F 3.2 °F 15.8 °F 86% 29.89 in 10.0 mi NW 20.7 mph - N/A   Mostly Cloudy
2:35 PM 17.6 °F 1.3 °F 14.0 °F 86% 29.90 in 10.0 mi NW 19.6 mph 26.5 mph N/A   Partly Cloudy
2:55 PM 17.6 °F 0.1 °F 14.0 °F 86% 29.91 in 10.0 mi NW 23.0 mph - N/A   Clear
3:15 PM 17.6 °F 0.1 °F 12.2 °F 79% 29.91 in 10.0 mi NW 23.0 mph - N/A   Clear
3:35 PM 17.6 °F 1.3 °F 12.2 °F 79% 29.93 in 10.0 mi NW 19.6 mph 28.8 mph N/A Snow Light Snow
3:55 PM 17.6 °F 2.7 °F 12.2 °F 79% 29.94 in 10.0 mi NW 16.1 mph - N/A   Overcast
4:15 PM 17.6 °F 3.7 °F 12.2 °F 79% 29.94 in 10.0 mi NW 13.8 mph - N/A Snow Light Snow
4:35 PM 15.8 °F 0.9 °F 12.2 °F 86% 29.95 in 10.0 mi NW 15.0 mph - N/A Snow Light Snow
4:55 PM 15.8 °F 0.3 °F 10.4 °F 79% 29.96 in 10.0 mi NW 16.1 mph - 0.01 in Snow Light Snow
5:15 PM 15.8 °F 0.3 °F 10.4 °F 79% 29.97 in 10.0 mi NW 16.1 mph - N/A Snow Light Snow
5:35 PM 14.0 °F -2.0 °F 10.4 °F 86% 29.97 in 10.0 mi NW 16.1 mph 23.0 mph 0.01 in Snow Light Snow
5:55 PM 14.0 °F -1.4 °F 10.4 °F 86% 29.99 in 10.0 mi NW 15.0 mph - 0.01 in   Overcast
6:15 PM 14.0 °F -1.4 °F 8.6 °F 79% 30.00 in 10.0 mi NW 15.0 mph - N/A   Overcast
6:35 PM 14.0 °F 0.5 °F 8.6 °F 79% 30.01 in 10.0 mi NW 11.5 mph - N/A   Overcast
6:55 PM 14.0 °F 0.5 °F 8.6 °F 79% 30.02 in 10.0 mi NW 11.5 mph - N/A   Overcast
7:15 PM 14.0 °F -2.0 °F 8.6 °F 79% 30.03 in 10.0 mi NNW 16.1 mph - N/A   Overcast
7:35 PM 12.2 °F -4.3 °F 6.8 °F 79% 30.03 in 10.0 mi North 16.1 mph - N/A   Overcast
7:55 PM 10.4 °F -6.0 °F 5.0 °F 79% 30.05 in 10.0 mi NNW 15.0 mph - N/A   Overcast
8:15 PM 8.6 °F -9.5 °F 3.2 °F 79% 30.05 in 10.0 mi NNW 17.3 mph - N/A   Overcast
8:35 PM 6.8 °F -12.4 °F 1.4 °F 79% 30.06 in 10.0 mi North 18.4 mph - N/A   Overcast
8:55 PM 6.8 °F -12.4 °F 1.4 °F 79% 30.07 in 10.0 mi North 18.4 mph - N/A   Overcast
9:15 PM 5.0 °F -13.0 °F -0.4 °F 78% 30.07 in 10.0 mi NNW 15.0 mph - N/A   Mostly Cloudy
9:35 PM 3.2 °F -15.3 °F -2.2 °F 78% 30.08 in 10.0 mi NNW 15.0 mph - N/A   Partly Cloudy
9:55 PM 1.4 °F -15.3 °F -4.0 °F 78% 30.09 in 10.0 mi NW 11.5 mph - N/A   Clear
10:15 PM -0.4 °F -15.7 °F -5.8 °F 78% 30.10 in 10.0 mi NW 9.2 mph - N/A   Clear
10:35 PM -2.2 °F -19.9 °F -7.6 °F 78% 30.10 in 10.0 mi NW 11.5 mph - N/A   Clear
10:55 PM -4.0 °F -20.2 °F -7.6 °F 85% 30.11 in 10.0 mi NW 9.2 mph - N/A   Mostly Cloudy
11:15 PM -4.0 °F -19.0 °F -9.4 °F 78% 30.11 in 10.0 mi NW 8.1 mph - N/A   Overcast
11:35 PM -5.8 °F -22.4 °F -9.4 °F 84% 30.12 in 10.0 mi NW 9.2 mph - N/A   Scattered Clouds
11:55 PM -7.6 °F -22.1 °F - N/A% 30.12 in 10.0 mi NW 6.9 mph - N/A   Clear